Theta_e
283 282 281 279 279 278 278 277 276 276 275 275 274 274 273 273 273 272 272 272 272 271 271 271 270 270 270 270 269 269 269 269 269 269 269 268 268 268 268 268 268 267 266 267 267 267 267 267 267 267 267 267 267 267 267 267 267 267 267 267 267 267 267
283 282 281 279 278 278 277 277 276 276 275 274 274 274 273 273 273 272 272 272 272 271 271 271 270 270 270 270 269 269 269 269 269 268 268 268 268 268 268 268 267 267 266 266 267 267 267 267 267 266 267 267 267 267 267 267 266 266 266 267 267 267 267
283 282 280 279 278 278 277 277 276 275 275 274 274 274 273 273 273 272 272 272 271 271 271 270 270 270 270 269 269 269 269 269 268 268 268 268 268 268 267 267 267 267 266 266 266 267 266 266 266 266 266 266 266 266 266 266 266 266 266 266 266 266 266
283 281 280 279 278 278 277 276 276 275 274 274 274 273 273 273 273 272 272 272 271 271 271 270 270 270 269 269 269 269 269 268 268 268 268 268 267 267 267 267 267 267 267 266 266 266 266 266 266 266 266 266 266 266 266 266 266 266 266 266 266 266 266
282 281 279 279 278 277 277 276 275 275 274 274 274 273 273 273 273 272 272 272 271 271 271 270 270 270 269 269 269 269 268 268 268 268 268 267 267 267 267 267 267 266 266 266 266 266 266 266 265 265 265 265 265 265 265 265 265 265 265 265 265 265 265
281 280 279 278 278 277 276 276 275 275 274 274 274 273 273 273 273 272 272 272 271 271 271 270 270 270 269 269 269 268 268 268 268 267 267 267 267 267 266 266 266 266 266 266 266 265 265 265 265 265 265 265 265 265 265 265 265 265 265 265 265 265 265
280 279 278 278 277 277 276 276 275 275 274 274 274 273 273 273 272 272 272 271 271 271 271 270 270 270 269 269 269 268 268 268 267 267 267 267 267 266 266 266 266 266 265 265 265 265 265 265 265 265 265 265 265 265 265 265 265 265 265 265 265 265 265
279 278 278 277 277 276 276 275 275 275 274 274 274 273 273 273 272 272 272 271 271 271 270 270 270 269 269 269 269 268 268 268 267 267 267 267 266 266 266 266 265 265 265 265 264 264 264 264 264 264 264 264 264 264 264 264 264 264 264 265 265 265 265
279 278 277 277 276 276 276 275 275 275 274 274 274 273 273 272 272 272 271 271 271 270 270 270 269 269 269 269 268 268 268 268 268 267 267 266 266 266 265 265 265 265 264 264 264 264 263 263 263 263 263 263 264 264 264 264 264 264 264 264 265 265 265
278 277 277 276 276 276 275 275 275 274 274 274 273 273 272 272 272 271 271 271 270 270 270 269 269 269 269 268 268 268 268 268 267 267 267 266 266 266 265 265 265 264 264 264 263 263 263 263 263 263 263 263 263 264 264 264 264 264 264 264 264 264 264
277 277 276 276 276 275 275 275 274 274 274 274 273 273 272 272 271 271 271 270 270 269 269 269 269 268 268 268 268 267 267 267 267 267 267 266 266 266 265 265 264 264 264 263 263 263 263 263 263 263 263 263 263 263 264 264 264 264 264 264 264 264 264
277 276 276 276 275 275 275 274 274 274 274 274 274 273 272 272 271 271 270 270 269 269 269 268 268 268 268 267 267 267 267 267 266 266 266 266 266 266 266 265 265 264 264 263 263 263 263 263 263 263 263 263 263 263 263 263 264 264 264 264 264 264 264
276 276 275 275 275 274 274 274 273 274 274 274 274 274 273 272 271 270 270 269 269 268 268 268 267 267 267 267 266 266 266 266 266 266 266 266 266 266 266 266 266 265 265 264 263 263 263 263 263 263 263 263 263 263 263 263 263 263 264 264 264 264 264
275 275 275 274 274 274 273 273 273 273 274 274 275 275 274 272 271 270 269 269 268 268 268 267 267 266 266 266 266 266 265 265 265 265 265 265 265 265 265 266 266 266 266 265 264 264 263 263 263 263 263 263 263 263 263 263 263 263 263 263 263 263 263
275 274 274 274 274 273 273 272 272 273 274 275 275 275 274 273 271 270 269 269 268 268 268 267 267 266 266 266 266 266 266 265 265 265 265 265 265 265 265 265 265 265 265 265 265 265 264 264 264 264 263 263 263 263 263 263 263 263 263 263 263 263 263
274 274 273 273 273 272 272 272 272 273 274 274 274 274 274 273 272 270 269 269 268 268 268 268 267 267 267 266 266 266 266 266 266 265 265 265 265 265 264 264 265 265 265 265 265 265 265 265 264 264 264 264 264 263 263 263 263 263 263 263 263 263 263
273 272 272 272 272 272 271 271 271 272 273 273 273 273 272 272 272 271 270 269 269 268 268 268 267 267 267 267 267 266 267 267 267 266 265 265 265 265 264 264 264 265 265 265 266 266 265 265 265 265 265 265 265 265 264 263 263 263 263 262 262 262 263
271 271 271 271 271 271 271 271 271 272 272 272 272 272 272 271 271 270 270 269 269 269 268 268 267 267 267 267 267 267 267 268 268 267 267 266 265 265 264 264 264 264 264 265 265 266 266 266 266 266 266 266 266 266 266 264 263 263 263 263 262 263 263
270 270 270 270 270 270 270 270 271 270 270 271 271 271 271 271 270 269 269 268 268 268 267 267 267 267 267 267 267 267 267 268 268 268 268 267 266 265 265 265 265 264 264 264 264 264 264 265 265 266 265 265 265 266 266 265 264 264 263 263 263 263 263
270 269 269 270 270 270 269 269 269 269 269 269 270 270 270 270 270 269 268 268 267 267 267 266 266 266 266 267 267 268 268 268 268 268 267 267 267 266 266 266 265 264 264 264 263 264 264 264 264 264 264 264 264 264 264 264 264 264 263 263 263 263 263
269 269 269 268 268 268 268 268 268 267 267 268 269 269 270 270 269 269 268 268 267 267 266 266 266 266 266 266 267 267 268 268 268 268 268 267 267 267 266 266 265 265 264 264 263 263 263 263 263 263 263 263 263 263 264 264 264 263 263 263 263 263 263
268 268 268 267 267 267 267 267 267 266 266 267 267 268 269 269 269 268 268 267 267 266 266 266 266 265 265 265 266 267 267 268 268 268 268 268 267 267 267 267 266 265 265 264 263 263 263 262 262 262 262 262 263 263 263 264 264 264 263 263 263 263 262
267 267 267 266 266 266 266 266 266 265 265 265 266 267 268 269 269 269 268 268 267 266 266 266 265 265 265 265 266 266 267 267 267 268 268 268 268 268 268 268 267 266 265 264 264 263 263 262 262 262 262 262 262 263 263 263 263 264 263 263 263 263 262
266 266 266 265 265 265 265 265 265 265 265 265 265 265 267 268 268 269 269 268 267 267 266 266 265 265 265 265 266 266 267 267 267 267 267 268 268 268 267 267 267 266 266 265 264 264 263 263 263 263 262 262 263 263 263 263 263 263 263 263 262 262 262
266 265 265 265 265 265 265 265 264 264 264 264 264 264 265 266 267 268 268 268 268 267 267 266 266 266 266 266 266 266 267 267 267 267 267 266 266 266 266 266 265 265 265 265 264 264 264 264 263 263 263 263 263 263 263 263 262 262 262 262 262 262 261
265 265 265 265 265 265 264 264 264 264 264 264 264 263 264 264 265 266 266 266 267 267 267 267 267 267 266 266 266 266 266 266 266 266 265 265 265 265 265 264 264 264 264 264 264 264 264 264 263 263 263 263 263 263 262 262 262 262 261 261 261 260 260
265 265 265 264 264 264 264 264 264 264 264 263 263 263 263 263 263 263 264 264 265 265 265 266 266 266 266 266 266 265 265 265 265 265 265 264 264 264 264 264 264 264 263 263 263 263 263 263 263 263 263 262 262 262 262 261 261 261 261 260 260 259 259
265 265 265 264 264 264 264 264 264 264 263 263 263 263 263 263 262 262 262 263 263 264 264 264 264 264 264 264 264 264 264 264 264 264 264 263 263 263 263 263 263 263 263 263 263 263 263 263 262 262 262 262 261 261 261 261 260 260 260 259 259 258 257
265 265 264 264 264 264 263 263 263 263 263 263 263 263 263 263 263 263 263 264 264 264 263 263 263 263 263 263 263 263 263 263 263 263 263 263 262 262 262 262 262 262 262 262 262 262 262 262 262 261 261 261 260 260 260 260 259 259 258 258 257 257 256
265 265 265 265 264 264 264 263 263 263 264 264 265 265 264 264 264 264 264 265 265 264 263 262 262 262 262 262 262 262 262 262 262 262 262 262 262 262 262 262 262 262 262 262 262 262 261 261 261 260 260 260 259 259 259 258 258 258 257 257 256 256 255
266 266 266 266 266 265 265 265 265 264 265 265 266 266 266 266 266 266 265 265 264 263 263 263 263 262 262 262 261 261 261 261 261 261 261 261 261 262 262 262 262 262 262 261 261 261 261 260 260 260 259 259 259 258 258 257 257 257 256 256 256 255 255
266 266 266 266 267 267 266 266 266 265 265 266 266 266 266 266 266 266 266 266 265 264 263 263 263 263 262 262 262 262 262 262 261 261 261 261 261 261 262 262 262 262 261 261 260 260 260 259 259 259 259 258 258 258 257 257 256 256 255 255 255 254 254
264 264 264 265 265 265 265 266 265 265 265 265 265 265 264 264 264 264 265 264 264 263 263 263 263 263 263 263 262 262 262 262 262 262 262 261 261 261 261 261 262 261 261 260 260 259 259 259 259 258 258 257 257 257 256 256 255 255 255 254 254 253 253
262 262 261 261 262 262 262 262 262 262 262 261 261 262 262 262 262 262 263 263 263 263 263 262 262 262 263 263 263 262 262 262 262 262 262 262 261 261 261 261 261 261 260 260 259 259 259 258 258 258 257 257 256 256 255 255 254 254 254 253 252 252 252
260 260 260 260 260 260 260 260 260 260 260 260 260 261 261 261 261 261 261 261 261 261 261 262 262 262 262 262 262 262 262 262 262 262 262 262 261 261 261 261 260 260 260 259 259 258 258 258 258 257 257 256 255 255 254 254 253 253 253 252 252 252 251
260 260 260 260 260 260 260 260 260 260 260 260 261 261 262 261 261 261 260 260 260 260 260 260 260 261 261 261 261 261 261 261 261 261 261 261 261 261 260 260 259 259 259 258 258 258 257 257 257 256 256 255 254 254 253 253 253 252 252 252 251 251 251
Wind_Speed
39 40 42 42 42 42 42 42 42 41 40 39 38 37 35 34 33 33 32 32 32 32 31 32 32 32 31 30 29 29 28 27 26 24 24 23 23 23 22 22 21 16 15 18 18 18 21 21 20 20 21 23 24 23 23 24 24 26 27 28 27 26 26
38 39 40 41 42 42 41 42 42 41 40 40 38 36 35 34 33 32 31 30 30 32 32 32 33 32 31 30 30 29 29 28 26 25 25 24 24 24 23 23 23 20 17 18 18 17 18 18 19 20 20 21 23 23 23 24 26 26 27 27 27 27 28
38 38 39 40 40 41 41 41 42 41 41 40 39 37 35 34 33 33 31 31 31 31 32 32 33 33 32 31 30 30 30 28 27 25 25 25 24 24 24 24 24 23 20 19 19 17 17 17 20 22 22 21 23 23 22 23 26 26 26 27 28 29 30
37 37 38 39 40 40 41 41 41 41 40 40 39 37 35 34 34 33 33 33 32 32 32 33 33 33 33 32 32 32 31 29 28 27 26 25 24 24 24 24 24 24 23 21 20 18 18 18 20 22 23 21 21 22 23 24 26 27 28 28 28 29 31
36 37 38 40 40 41 41 41 41 41 40 39 38 37 36 35 34 34 33 33 33 33 33 33 33 33 32 33 33 33 32 31 30 29 28 27 26 25 25 24 24 25 25 23 22 19 18 18 19 22 23 21 20 22 23 25 26 28 29 29 29 29 30
36 37 39 40 40 40 40 40 40 40 39 38 37 36 35 35 34 34 33 33 33 33 33 34 34 33 33 34 35 34 33 32 30 29 29 29 28 27 26 26 25 24 24 24 24 22 20 19 20 21 24 23 22 22 23 24 26 27 27 27 27 28 28
35 36 38 39 39 39 39 39 39 39 38 37 36 36 35 35 34 32 32 32 33 33 33 33 33 33 33 34 35 34 33 32 31 31 30 30 29 28 27 26 26 25 24 23 23 23 22 21 20 20 23 24 23 23 24 24 24 25 25 25 26 28 28
35 35 36 37 37 38 38 38 38 38 38 37 36 36 36 35 33 32 31 31 32 32 33 33 33 33 34 34 34 33 33 32 32 31 31 31 30 29 28 27 26 25 24 23 23 23 23 22 21 21 23 24 23 23 24 23 23 25 25 25 26 27 27
34 34 34 34 35 36 36 37 38 38 38 37 36 36 35 33 32 32 32 31 31 31 32 32 33 34 34 33 33 32 31 32 32 32 32 31 31 30 29 28 27 25 24 23 23 23 23 22 21 22 22 23 23 24 24 24 24 25 26 24 25 26 25
32 32 33 33 34 35 36 36 37 37 37 37 37 36 33 32 32 32 31 31 31 31 31 32 33 33 34 33 32 31 31 31 31 32 32 32 32 31 30 29 28 27 26 25 23 24 23 20 21 23 23 23 25 25 25 24 23 24 25 23 22 23 24
30 31 32 33 33 34 34 35 36 35 33 32 34 34 33 32 32 31 31 31 31 31 31 31 32 32 32 32 31 31 31 30 30 31 33 33 33 33 33 32 30 29 28 26 25 25 24 21 22 25 25 25 26 25 24 24 23 23 23 20 17 17 18
29 30 31 31 32 33 33 33 34 33 30 29 29 31 32 33 32 31 32 32 32 31 31 31 31 31 32 31 31 31 31 31 30 31 32 32 31 32 33 33 33 33 31 30 28 27 26 26 26 27 26 26 26 25 24 24 24 23 23 21 19 18 18
28 28 29 29 30 31 31 31 31 30 28 28 27 26 29 32 32 32 32 32 32 32 31 31 30 30 30 31 31 31 31 31 32 32 33 32 31 30 31 32 34 34 35 35 34 31 30 31 29 28 29 28 26 25 24 23 24 25 24 24 22 22 23
26 26 27 29 29 29 28 29 30 27 26 26 25 24 25 28 30 32 32 32 31 31 31 31 31 31 31 31 31 32 31 32 33 33 34 34 34 34 34 35 35 35 36 37 36 34 34 35 34 33 33 30 27 27 26 25 25 26 27 28 29 28 28
25 25 26 27 28 27 26 28 29 26 24 24 23 23 24 25 26 28 30 31 32 32 31 31 31 31 31 30 31 31 31 32 33 33 34 35 36 38 39 39 40 40 40 40 38 37 36 36 36 36 36 33 32 32 32 31 32 32 31 31 29 28 28
23 24 25 25 26 26 25 27 27 24 22 22 22 22 24 24 24 24 26 27 29 29 30 30 29 30 30 29 30 29 29 29 31 32 34 35 36 38 39 41 42 42 40 40 41 42 41 40 39 39 39 38 37 38 39 38 36 35 32 28 25 24 25
21 22 23 24 24 25 26 27 26 23 20 21 21 22 24 25 24 24 24 24 24 25 26 26 26 27 27 28 29 28 27 26 27 31 33 34 35 36 36 38 41 40 37 36 38 40 41 41 41 40 41 41 40 41 42 39 34 31 30 26 19 18 21
18 19 21 22 24 25 25 26 26 23 21 21 22 23 25 26 25 24 23 23 23 24 25 26 26 25 26 28 29 29 27 26 27 29 30 31 33 34 34 36 38 36 35 35 36 37 38 38 38 38 39 39 38 38 37 35 32 31 30 25 19 17 18
16 17 18 20 21 22 23 24 24 24 23 22 22 23 24 25 25 24 24 24 24 25 26 26 27 27 27 28 29 28 28 28 29 31 32 31 30 30 33 37 37 34 34 36 37 38 38 37 36 36 36 35 34 33 32 30 29 27 26 24 22 20 16
14 15 15 17 18 19 21 22 23 24 23 22 22 23 24 25 24 23 23 24 25 25 25 26 27 28 28 28 28 29 30 31 32 34 35 34 32 31 34 37 36 34 35 36 37 38 39 38 37 36 36 35 33 32 31 30 28 26 25 25 23 20 17
12 13 14 15 16 18 19 21 22 23 22 21 21 22 24 25 26 24 24 24 25 25 26 26 27 28 28 28 28 28 30 32 32 33 35 35 35 36 37 36 34 34 36 37 37 36 37 37 37 36 36 35 34 32 30 29 29 29 29 28 27 24 22
11 12 13 14 16 18 19 21 21 22 22 21 21 22 23 25 26 25 24 25 26 26 27 27 27 28 29 28 27 27 29 30 31 32 32 31 32 34 36 36 34 34 34 35 34 33 33 34 34 34 34 33 33 32 30 28 29 30 30 31 31 30 28
12 13 14 15 17 18 20 21 21 22 23 23 23 23 24 25 26 25 25 26 27 27 28 29 29 30 30 28 26 27 29 31 31 32 32 30 28 29 31 32 32 32 32 32 31 30 30 31 31 31 31 31 31 30 30 29 28 29 29 29 29 30 30
13 14 15 16 18 19 20 21 22 23 24 24 24 24 23 24 25 26 27 28 28 28 29 31 31 30 29 27 27 29 31 31 31 31 30 27 25 25 24 23 22 23 25 27 28 28 27 27 29 29 30 30 31 30 29 28 27 26 26 26 26 27 27
13 14 15 17 18 19 20 20 21 22 23 24 24 23 22 22 23 24 25 27 28 28 28 29 30 30 29 29 31 32 31 30 29 27 25 22 18 17 17 17 16 16 18 20 22 24 25 25 27 28 29 29 28 27 26 25 24 23 23 24 26 27 28
14 15 16 17 18 18 19 18 19 21 22 22 22 23 23 22 23 23 24 26 28 27 26 26 27 27 28 29 30 29 28 28 27 25 24 23 20 17 17 17 18 18 17 18 20 21 23 24 24 24 25 24 23 23 23 23 23 23 24 25 25 26 27
15 16 17 18 18 19 19 18 19 20 21 21 22 24 25 25 25 25 24 26 28 28 29 29 28 27 28 28 27 27 27 27 26 25 25 24 24 23 21 19 20 21 21 21 22 23 23 24 23 22 22 22 22 23 24 23 23 24 24 25 23 22 25
17 18 18 18 18 18 18 18 20 21 22 22 23 24 25 25 25 25 25 26 27 29 31 32 31 29 28 27 27 27 27 26 26 26 25 25 26 27 26 23 23 23 23 24 25 24 24 24 23 24 24 23 24 24 24 24 23 24 24 23 21 20 22
20 21 21 20 19 18 18 18 21 22 22 21 23 24 25 26 26 26 26 25 25 27 30 30 29 28 27 26 26 26 25 26 26 26 27 28 28 28 28 27 26 26 26 27 26 26 26 25 25 25 25 24 23 23 24 24 24 23 23 22 21 21 22
20 21 22 22 22 22 21 23 24 23 21 21 22 23 24 26 26 27 28 28 27 27 27 25 24 25 25 25 25 24 24 25 25 25 26 28 28 28 28 28 29 30 29 29 29 28 28 27 26 25 24 24 23 23 23 23 23 23 22 21 21 22 23
19 20 20 21 22 23 24 26 28 27 24 23 23 25 26 28 27 27 28 28 28 28 26 23 22 22 23 24 24 23 24 25 25 25 26 26 27 28 28 29 30 31 31 30 30 30 28 27 26 25 25 25 26 25 24 23 22 21 22 22 22 22 22
19 20 20 20 21 22 23 23 23 23 23 23 24 24 24 24 23 21 19 17 18 19 19 20 20 20 21 23 23 23 24 25 25 25 26 26 25 26 28 30 31 32 32 31 30 29 28 27 26 26 26 26 26 25 23 22 22 21 21 22 22 22 22
17 18 19 19 19 20 21 20 19 19 21 21 21 21 20 20 22 23 22 20 19 17 16 17 17 18 19 21 22 23 24 25 26 27 27 27 27 27 28 31 32 31 31 31 30 28 27 27 27 26 26 25 24 24 22 22 21 21 21 21 20 20 21
20 18 18 18 18 18 19 19 19 20 21 21 21 20 20 21 21 22 23 23 23 21 20 20 19 19 20 21 21 22 22 23 24 25 26 27 28 28 28 29 29 29 29 29 28 27 27 27 27 27 25 24 23 22 21 21 21 21 20 20 20 20 19
25 23 21 19 19 19 19 19 19 19 19 20 20 20 19 18 18 18 20 22 23 23 22 22 21 21 22 22 23 24 24 24 24 24 25 26 27 26 24 23 25 27 28 27 27 27 27 27 27 27 26 25 23 22 21 21 21 22 22 21 20 20 19
24 26 25 23 21 21 20 19 18 18 18 18 18 18 17 16 16 17 18 21 23 23 22 22 23 23 23 23 23 23 24 23 21 20 20 20 20 20 19 19 20 23 24 25 25 26 26 26 26 26 26 24 23 23 23 22 22 22 21 21 20 19 18
Wind_Direction
221 218 215 213 212 212 210 209 208 207 205 204 204 204 203 202 200 201 203 205 207 208 209 210 210 211 211 210 210 211 214 215 215 216 218 221 225 227 229 232 234 244 262 261 257 262 265 265 265 265 265 268 270 271 269 268 268 273 278 279 278 279 278
221 217 214 212 211 211 210 208 207 206 204 203 203 203 202 202 201 201 204 205 206 208 209 210 211 211 210 209 210 211 212 214 214 215 218 220 222 227 229 230 234 242 255 263 261 258 258 258 261 264 264 266 270 271 270 270 271 273 276 275 275 277 278
221 216 213 211 210 210 209 208 207 205 205 204 203 202 202 202 202 203 205 206 206 208 209 210 211 212 211 209 211 213 213 215 215 215 217 220 221 225 229 230 234 240 249 260 262 255 253 259 263 264 265 266 269 270 270 271 273 274 274 273 274 276 277
219 215 211 210 209 209 209 207 206 205 205 205 204 203 202 202 204 206 207 208 208 208 208 209 210 211 211 210 212 214 215 216 216 217 218 221 222 224 229 232 233 238 246 257 262 258 255 256 259 263 265 265 266 267 268 270 272 274 273 272 273 275 276
216 213 211 210 209 209 208 207 206 205 205 206 205 204 204 205 206 208 209 210 211 210 210 211 211 211 210 210 212 214 215 216 217 219 220 223 225 226 231 235 236 239 246 254 261 263 258 253 254 260 264 264 264 266 268 269 271 272 272 273 274 274 274
213 212 211 211 210 209 209 208 207 206 206 205 205 205 206 207 208 209 210 211 212 212 213 213 213 212 211 211 213 214 215 216 216 218 221 222 225 227 230 234 236 239 243 250 258 262 261 256 253 255 260 262 262 264 267 269 270 270 270 271 273 273 273
213 212 212 212 211 210 210 208 207 207 206 206 205 206 207 207 208 209 211 212 214 214 215 215 214 214 214 214 216 217 217 217 217 219 221 222 224 225 228 232 234 237 241 246 252 256 257 257 253 252 257 260 261 262 262 263 268 270 269 268 270 271 272
214 213 213 213 213 212 211 209 208 208 207 206 206 207 207 208 208 210 211 213 216 216 216 216 216 217 218 219 220 222 222 222 221 220 221 223 225 226 228 231 232 234 237 241 247 251 254 256 256 254 256 259 260 258 257 257 261 266 269 268 268 269 269
215 213 213 213 213 213 211 210 210 209 207 207 207 207 207 208 208 210 213 214 216 217 217 218 218 220 222 223 225 226 227 228 228 225 224 223 224 226 228 230 231 232 236 240 244 248 251 253 253 251 250 251 250 251 255 258 259 262 266 268 269 268 267
216 214 214 213 212 212 212 212 212 211 209 207 207 207 206 207 209 212 214 215 216 217 218 219 221 223 225 227 228 230 231 233 233 232 231 229 227 227 227 227 229 231 234 237 240 244 245 245 247 246 243 245 247 249 254 257 256 260 265 267 269 270 268
216 215 215 213 212 212 211 212 213 211 208 206 206 207 206 208 211 213 215 216 216 215 217 219 222 225 227 228 229 231 233 234 235 236 237 236 235 234 233 230 230 231 232 233 236 241 240 238 242 244 242 243 247 248 250 252 253 257 262 263 264 268 268
217 216 215 213 212 212 211 212 212 209 205 203 204 206 210 212 214 216 217 218 217 217 217 218 222 225 227 229 230 233 234 235 236 236 237 237 238 237 237 236 235 234 233 232 233 237 237 235 240 244 243 241 244 246 248 250 252 253 257 259 259 261 263
218 215 213 212 212 212 211 211 209 205 203 204 204 206 212 217 219 219 220 219 219 220 220 221 224 227 230 232 234 236 237 237 238 238 238 239 239 238 237 238 239 238 237 235 234 234 237 237 238 242 244 242 243 246 247 247 249 251 253 256 257 257 260
217 216 214 212 212 211 210 209 207 204 202 206 209 210 215 220 222 223 224 224 224 224 225 228 230 232 234 237 238 239 240 240 240 240 240 240 240 240 240 240 242 243 243 241 238 237 240 242 241 243 246 246 244 245 245 245 247 248 249 252 255 257 260
218 217 215 214 212 210 209 209 208 204 204 210 215 218 221 225 225 224 225 227 228 229 230 233 234 236 237 238 240 241 242 242 241 240 241 240 240 241 242 241 243 244 244 245 244 243 245 246 245 246 248 248 246 246 247 247 248 249 250 253 257 259 261
220 218 216 214 212 209 209 212 210 207 210 216 220 224 228 230 229 224 221 222 223 224 227 230 233 236 239 240 241 242 242 241 240 238 238 239 240 242 243 244 245 246 245 246 246 246 247 248 249 250 251 250 247 247 248 248 247 248 249 252 257 258 256
220 218 216 214 213 211 212 214 214 213 217 223 226 230 234 235 234 231 227 225 224 224 226 227 229 233 238 241 244 244 242 240 238 237 236 236 238 241 242 245 248 248 247 248 250 249 249 250 251 251 250 250 247 246 244 240 238 240 241 243 248 251 250
219 218 218 217 216 217 218 221 224 225 226 229 232 235 238 238 237 236 234 234 235 234 235 235 235 236 238 242 244 244 243 240 238 238 237 236 236 237 238 244 248 247 245 248 252 254 255 254 253 253 253 253 252 251 245 235 231 234 235 235 238 242 247
216 216 219 221 223 225 227 232 236 237 235 236 238 239 240 239 237 235 236 237 239 240 241 241 242 241 241 242 244 242 241 241 239 238 239 240 238 235 236 243 247 244 243 245 247 253 257 258 256 256 257 257 256 256 253 245 240 235 229 230 235 238 241
217 219 225 229 233 237 240 242 246 247 244 242 242 242 241 240 237 234 234 236 237 239 241 241 242 241 240 241 244 245 244 244 243 241 240 239 238 235 238 243 244 242 243 243 244 248 254 257 258 259 259 260 259 256 254 252 251 244 233 229 231 231 233
226 230 235 240 243 247 249 250 252 253 251 246 244 243 242 241 239 236 235 236 237 238 239 240 241 242 242 242 244 247 248 249 251 250 245 240 237 240 243 243 240 239 242 242 241 243 247 251 255 257 259 260 260 259 256 253 251 250 244 237 234 233 237
237 241 243 246 248 250 253 255 255 256 255 251 246 245 244 243 242 239 237 237 238 238 239 240 241 241 242 242 243 247 250 252 255 257 255 250 246 248 250 246 238 235 236 236 235 237 239 242 246 250 252 255 256 257 257 254 251 252 251 247 244 241 241
246 247 247 249 251 253 256 257 258 258 259 257 253 249 247 247 246 243 240 238 238 238 239 241 242 242 243 243 244 247 249 251 255 258 259 259 257 256 256 252 243 234 229 228 228 230 232 234 237 240 244 247 250 253 255 255 253 252 252 252 251 249 248
253 251 250 252 254 255 257 258 259 260 262 263 262 257 253 252 251 248 245 243 241 241 241 242 242 243 243 243 245 247 250 253 257 259 260 263 265 264 264 261 250 237 229 224 222 224 227 229 230 232 236 240 244 249 252 251 250 250 250 251 251 251 249
255 253 253 253 255 258 260 260 261 261 262 265 266 263 259 256 255 253 252 251 250 247 244 243 243 244 245 245 246 250 254 257 259 262 265 269 270 267 265 263 255 244 234 226 221 222 226 228 228 229 233 236 239 240 239 237 236 236 238 240 242 244 245
256 255 255 256 257 260 263 262 260 260 262 263 265 265 264 261 258 255 253 253 255 254 251 249 248 249 249 249 250 252 255 258 260 262 264 264 261 258 257 255 248 241 234 229 226 223 223 225 227 227 229 230 229 228 228 227 225 226 227 228 231 236 240
256 255 255 256 259 262 264 263 260 259 260 261 261 264 266 266 264 262 259 255 253 252 252 252 252 252 252 252 253 253 254 256 258 258 257 255 254 254 252 247 242 240 237 235 233 230 226 226 226 225 225 225 224 225 227 225 223 224 226 227 231 240 249
258 257 258 259 261 263 262 261 259 259 262 262 262 264 266 265 264 265 263 258 254 251 251 251 251 251 251 251 251 252 252 252 252 251 251 251 252 253 251 245 240 239 239 237 236 233 230 227 224 222 222 223 224 225 226 226 225 228 231 235 239 247 255
265 265 267 267 266 265 261 259 261 265 268 268 266 263 261 260 263 265 264 262 259 254 251 249 247 247 247 246 246 247 247 247 247 248 249 250 250 249 246 240 234 231 231 232 231 229 227 224 221 220 219 220 223 225 227 227 229 232 237 240 241 243 249
271 273 274 271 269 267 264 265 271 273 272 270 269 265 258 256 256 256 260 265 263 254 246 242 239 239 239 239 240 239 240 241 242 242 244 245 244 241 238 234 231 229 229 229 228 226 224 221 218 217 218 219 222 223 224 226 229 232 235 235 233 237 243
280 282 281 276 274 273 270 270 273 272 267 267 270 268 265 263 259 255 256 259 254 245 238 236 235 234 234 235 235 235 236 237 236 236 237 237 237 235 232 229 228 228 227 225 223 223 222 219 218 219 222 223 223 223 224 225 227 228 230 230 230 234 241
291 291 290 287 285 284 281 278 277 272 268 270 274 275 277 280 279 276 273 267 256 246 240 238 235 233 232 232 233 234 234 234 233 233 233 233 232 231 229 227 228 228 226 221 218 218 219 221 223 225 226 225 223 222 221 221 222 223 226 229 232 235 240
296 296 298 298 295 294 294 294 293 290 287 287 290 291 292 290 285 280 278 278 275 270 259 249 244 239 236 234 234 236 236 234 233 233 232 231 231 231 230 229 228 226 223 220 219 219 220 222 225 225 223 221 219 217 217 217 220 224 228 230 232 236 242
308 307 306 304 302 301 299 298 299 299 298 297 298 298 295 291 286 280 276 274 271 267 262 256 252 247 243 241 240 240 239 237 235 234 232 231 231 231 231 229 225 222 220 220 221 221 221 222 222 220 218 217 215 216 218 221 224 227 229 229 232 238 244
311 313 312 308 305 303 301 299 297 297 296 296 297 298 297 292 284 278 274 272 269 267 264 261 258 255 252 249 247 247 247 246 244 239 233 231 230 228 225 221 217 215 216 218 218 218 218 219 219 218 218 217 216 215 217 220 224 227 229 232 235 239 244
302 307 309 307 305 305 304 301 297 295 295 294 294 296 297 292 282 273 269 267 265 264 261 259 259 259 258 255 252 250 248 246 243 237 229 225 223 219 214 210 208 208 211 213 214 215 215 215 215 217 217 215 216 218 220 223 226 227 230 233 236 239 244